GW6157 Weather Reports


time (UTC)temp
C
wind
direction
speed
KPH
gust
KPH
rain 1hr
cm
rain 24hr
cm
rain mn
cm
humidity
%
barometer
mb
20260504231510 11 231 14.5 29.0 0.00 0.89 0.36 69 1005.0
20260504230016 12 186 8.0 24.1 0.00 1.04 0.36 67 1004.7
20260504224507 12 220 8.0 17.7 0.00 1.22 0.36 67 1004.4
20260504223005 12 248 9.7 16.1 0.00 1.40 0.36 67 1004.2
20260504221533 12 233 11.3 24.1 0.00 1.55 0.36 66 1004.2
20260504220015 12 216 8.0 19.3 0.00 1.70 0.36 66 1004.0
20260504214517 12 219 4.8 14.5 0.00 1.83 0.36 69 1003.9
20260504213004 12 228 8.0 17.7 0.00 1.96 0.36 68 1003.9
20260504211505 12 195 8.0 17.7 0.00 2.06 0.36 67 1003.9
20260504210013 11 191 12.9 22.5 0.00 2.16 0.36 67 1003.9
20260504204517 12 214 11.3 22.5 0.00 2.26 0.36 65 1003.9
20260504203019 12 217 11.3 20.9 0.00 2.34 0.36 64 1003.8
20260504201503 12 202 11.3 20.9 0.00 2.46 0.36 64 1003.7
20260504200007 12 232 16.1 29.0 0.00 2.57 0.36 57 1003.7
20260504194513 13 155 12.9 22.5 0.00 2.72 0.36 48 1003.5
20260504193015 13 208 9.7 27.4 0.00 2.87 0.36 47 1003.5
20260504191520 13 162 17.7 29.0 0.00 3.05 0.36 45 1003.5
20260504190029 14 212 19.3 37.0 0.00 3.25 0.36 42 1003.4
20260504184519 15 191 14.5 40.2 0.00 3.45 0.36 40 1003.2
20260504183018 16 153 17.7 41.8 0.00 3.56 0.36 41 1003.0
20260504181522 16 208 19.3 32.2 0.00 3.66 0.36 43 1002.8
20260504180028 16 163 17.7 30.6 0.00 3.76 0.36 41 1002.9
20260504174508 16 201 16.1 33.8 0.00 3.89 0.36 39 1002.8
20260504173013 17 226 20.9 37.0 0.00 4.01 0.36 34 1002.8
20260504171526 16 182 14.5 33.8 0.00 4.11 0.36 34 1003.0
20260504081504 4 360 12.9 27.4 0.00 4.39 0.36 89 1000.0
20260504050020 4 360 8.0 25.7 0.10 4.32 0.28 91 998.5
20260504044523 4 310 8.0 22.5 0.13 4.29 0.25 91 998.4
20260504043005 4 297 12.9 25.7 0.15 4.27 0.23 91 998.3
20260504041509 3 360 8.0 32.2 0.18 4.24 0.20 91 998.2
20260504040016 3 321 12.9 20.9 0.18 4.22 0.18 92 998.1
20260504034518 3 49 6.4 20.9 0.15 4.17 0.13 92 998.0
20260504033027 3 319 16.1 29.0 0.13 4.11 0.08 92 997.7
20260504031506 3 293 9.7 30.6 0.08 4.06 0.03 92 997.6
20260504023021 3 296 9.7 27.4 0.05 3.99 3.99 91 997.2
20260504021526 3 284 14.5 32.2 0.08 3.99 3.99 91 996.9
20260504020012 3 326 16.1 27.4 0.08 3.96 3.96 92 996.8
20260504014519 3 334 12.9 30.6 0.10 3.96 3.96 92 996.6
20260504013007 3 332 11.3 40.2 0.10 3.94 3.94 92 996.5
20260504011503 3 360 16.1 30.6 0.08 3.91 3.91 92 996.4
20260504010006 3 360 9.7 32.2 0.08 3.89 3.89 92 996.3
20260504004503 3 360 11.3 32.2 0.10 3.86 3.86 93 996.2
20260504003006 3 360 11.3 41.8 0.18 3.84 3.84 92 996.2
20260504001504 3 360 17.7 33.8 0.33 3.84 3.84 92 996.2
20260504000004 3 360 14.5 32.2 0.46 3.81 3.81 92 996.2
20260503234503 3 360 11.3 32.2 0.58 3.76 3.76 93 996.1
20260503233006 2 360 11.3 27.4 0.66 3.66 3.66 93 996.1